Location: Équennes
(49.7375°N, 1.9622°E)
Time: 09:43:03
(UTC+00:00)

Cosmos 1656 - Pass Details

Date: 10 October 2023
Orbit: 797 x 849 km, 71.1° (Epoch: 10 December)

Event Time Altitude Azimuth Distance (km) Brightness Sun altitude
Rises 18:33:02 0° 334° (NNW) 3,317 7.3 -13.8°
Reaches altitude 10° 18:36:56 10° 2° (N) 2,390 6.1 -14.5°
Maximum altitude 18:39:25 13° 29° (NNE) 2,183 5.6 -14.9°
Enters shadow 18:41:22 11° 51° (NE) 2,317 5.6 -15.2°
